Back to catalog

DMSP 5D-2 F13 DEB

AliveSSO
NORAD 40450·DEBRIS·🇺🇸 United States

Launched Mar 24, 1995 from Vandenberg Space Force Base

Loading…

Next Passes (next 24 hours)

TLE

FreshSource: Space-Track

Epoch: Sep 14, 2026, 12:15 UTC

1 40450U 95015BC  26257.51055276  .00001266  00000-0  48396-3 0  9994
2 40450  98.6313 284.2982 0013914  70.9576 289.3113 14.32405277599254

Track DMSP 5D-2 F13 DEB in real time with AllMySat

Download on the App Store